Wind_Speed
21 19 18 20 18 19 20 20 12 16 15 15 16 18 19 20 20 19 18 18 20 22 24 25 24 24 24
16 16 16 18 18 19 17 16 19 19 19 18 20 23 23 24 21 22 21 21 23 25 24 24 24 25 27
15 15 14 14 14 16 14 14 14 14 12 12 14 15 16 18 20 21 20 21 22 24 26 27 27 29 31
14 15 16 16 17 18 19 19 19 18 19 19 21 22 23 23 24 24 25 26 28 29 29 30 30 31 29
16 18 18 19 19 19 20 20 21 22 23 22 22 22 23 24 25 27 28 29 30 29 27 26 24 21 21
19 20 20 20 20 21 22 22 22 23 23 23 23 23 23 23 23 24 23 22 22 20 16 14 16 18 19
19 20 20 20 20 21 21 22 22 21 21 21 19 20 20 21 21 21 19 16 13 13 13 15 17 18 19
19 20 20 20 20 21 21 21 21 20 19 19 19 18 17 16 15 13 13 13 14 15 16 18 19 20 20
19 20 20 20 20 20 21 21 20 20 19 19 19 18 16 15 14 14 15 15 17 18 19 19 20 20 20
19 19 19 19 20 21 22 22 22 21 21 18 19 18 16 15 15 16 18 19 20 21 21 21 21 21 20
19 19 20 20 21 22 22 22 23 23 21 20 19 20 18 17 17 19 18 21 22 22 23 23 24 23 22
21 21 21 22 23 23 23 23 22 23 24 22 19 21 21 20 18 21 23 22 23 24 24 24 24 23 23
22 23 23 24 24 24 24 24 24 25 25 24 23 22 22 22 20 20 23 23 27 27 28 27 26 26 26
23 24 24 24 25 25 25 25 24 25 27 26 25 24 23 23 22 21 25 24 27 29 30 30 30 30 30
25 25 25 25 25 26 25 25 24 25 27 29 28 27 26 25 23 26 25 26 28 29 32 31 31 31 32
26 25 25 25 25 26 26 26 25 25 26 28 30 31 30 26 27 26 27 29 31 30 32 33 28 29 30
26 26 25 25 25 25 27 28 27 27 26 28 30 34 34 31 27 29 28 31 33 32 33 34 32 27 29
Wind_Direction
309 306 306 312 306 306 298 299 287 285 290 272 265 267 274 279 274 269 269 275 276 275 277 278 276 276 272
318 317 309 311 309 313 304 291 290 290 286 270 263 273 270 266 266 271 267 270 272 274 272 272 272 272 274
317 316 317 316 316 313 311 307 301 303 303 284 278 279 278 274 274 273 273 275 275 272 273 274 274 274 274
315 315 316 315 314 312 307 303 300 297 291 285 282 282 281 280 278 280 282 280 277 276 275 276 276 276 272
311 312 312 312 310 307 303 301 300 299 297 296 292 287 284 283 282 282 280 278 277 277 276 274 271 259 250
309 309 308 308 307 305 302 300 296 291 292 290 290 292 292 289 286 284 281 278 277 277 271 261 256 255 254
308 307 307 308 306 303 301 300 299 299 296 294 293 291 288 286 285 287 288 284 279 272 267 263 262 263 263
313 313 312 311 310 309 308 305 304 301 297 295 294 290 287 282 280 279 275 271 268 266 264 263 264 265 267
314 314 314 314 314 313 312 310 306 301 297 296 293 290 286 281 277 271 266 264 263 262 263 264 265 266 266
314 313 313 314 315 316 315 313 309 306 304 299 292 289 284 278 273 270 272 272 273 272 272 271 270 266 265
313 312 313 315 315 315 313 312 310 307 303 298 291 285 281 278 278 276 274 274 274 274 272 272 271 271 271
313 314 315 316 316 315 313 312 309 304 302 297 289 283 282 279 278 280 284 281 278 276 275 272 272 273 272
317 316 315 314 313 313 311 309 307 302 298 294 291 286 282 281 279 278 277 278 283 283 281 279 280 280 278
316 315 313 312 312 312 309 307 304 299 297 293 290 287 283 281 281 279 277 278 277 276 275 277 278 278 276
314 312 310 310 310 309 307 305 301 296 294 294 292 289 285 283 282 281 281 282 279 276 276 274 274 274 275
311 309 309 308 308 307 305 303 300 295 292 291 292 291 289 288 287 282 283 282 280 279 278 275 271 271 271
308 308 306 305 306 305 303 303 301 299 296 294 291 290 290 290 285 286 285 280 281 283 281 278 276 270 269
Height
3082 3080 3078 3077 3076 3074 3072 3071 3069 3068 3066 3065 3064 3066 3066 3065 3064 3063 3063 3063 3063 3064 3065 3065 3066 3066 3066
3078 3076 3074 3073 3071 3068 3067 3066 3066 3063 3061 3061 3060 3060 3059 3059 3059 3058 3057 3056 3058 3058 3058 3059 3059 3060 3061
3075 3073 3071 3069 3067 3066 3064 3063 3061 3059 3057 3056 3055 3054 3053 3052 3052 3051 3051 3050 3050 3051 3053 3053 3053 3053 3054
3071 3070 3068 3066 3063 3062 3060 3058 3055 3053 3051 3050 3049 3047 3046 3044 3045 3044 3043 3043 3044 3044 3044 3044 3044 3044 3044
3067 3065 3063 3061 3059 3057 3055 3052 3050 3047 3044 3043 3041 3040 3039 3038 3036 3035 3035 3034 3034 3034 3035 3035 3036 3037 3038
3062 3060 3058 3056 3053 3051 3049 3046 3044 3042 3039 3038 3035 3033 3032 3030 3029 3028 3028 3027 3027 3026 3027 3029 3030 3032 3033
3057 3055 3052 3050 3048 3045 3042 3040 3037 3035 3033 3031 3030 3028 3026 3024 3022 3021 3021 3020 3020 3022 3023 3024 3026 3027 3027
3051 3049 3047 3044 3042 3039 3036 3034 3031 3029 3027 3025 3023 3022 3021 3019 3018 3017 3017 3017 3018 3019 3019 3020 3020 3020 3021
3046 3044 3041 3039 3036 3034 3031 3028 3026 3024 3022 3020 3018 3016 3015 3013 3012 3012 3012 3012 3013 3013 3014 3014 3014 3014 3014
3041 3039 3037 3034 3031 3028 3025 3023 3020 3018 3017 3016 3013 3012 3011 3009 3008 3007 3006 3006 3006 3006 3007 3006 3007 3007 3007
3037 3035 3032 3029 3026 3023 3020 3018 3015 3012 3011 3010 3008 3005 3004 3004 3003 3001 3001 3000 3000 3000 3000 3000 2999 2999 2999
3032 3029 3026 3024 3021 3018 3015 3012 3010 3007 3004 3003 3002 3000 2999 2998 2997 2995 2992 2992 2991 2991 2991 2991 2991 2991 2991
3026 3023 3020 3017 3014 3011 3009 3006 3003 3000 2998 2996 2994 2993 2992 2991 2990 2989 2987 2984 2981 2982 2981 2981 2981 2981 2981
3020 3017 3014 3011 3008 3005 3002 2999 2997 2993 2990 2988 2987 2986 2985 2983 2983 2982 2978 2978 2976 2973 2973 2972 2972 2971 2971
3013 3010 3007 3004 3001 2998 2995 2993 2990 2987 2984 2980 2979 2977 2976 2975 2975 2972 2971 2969 2966 2965 2963 2963 2964 2962 2961
3006 3003 3000 2997 2994 2990 2987 2984 2982 2980 2977 2974 2971 2968 2966 2967 2964 2964 2962 2959 2956 2955 2953 2952 2955 2953 2951
2998 2995 2992 2989 2987 2983 2979 2977 2974 2972 2969 2966 2962 2958 2956 2956 2958 2954 2953 2949 2946 2945 2942 2940 2941 2944 2941